Regional Weather Roundup
Issued by NWS Charleston, SC

Current Version | Previous Version | Graphics & Text | Print | Product List | Glossary On
Versions: 1 2 3 4 5 6 7 8 9 10 11 12 13 14 15 16 17 18 19 20 21 22 23 24 25 26 27 28 29 30 31 32 33 34 35 36 37 38 39 40 41 42 43 44 45 46 47 48 49 50
000 ASUS42 KCHS 200225 RWRCHS REGIONAL WEATHER ROUNDUP NATIONAL WEATHER SERVICE CHARLESTON SC 1000 PM EDT FRI SEP 19 2014 NOTE: "FAIR" INDICATES FEW OR NO CLOUDS BELOW 12,000 FEET WITH NO SIGNIFICANT WEATHER AND/OR OBSTRUCTIONS TO VISIBILITY. NOT ALL STATIONS ARE QUALITY CONTROLLED BY THE NATIONAL WEATHER SERVICE. USE DATA WITH CAUTION...ESPECIALLY DEWPOINT OBSERVATIONS. SCZ027-030-031-034>040-042>050-200300- ...SOUTH CAROLINA... CITY SKY/WX TMP DP RH WIND PRES REMARKS N CHARLESTON CLOUDY 72 68 87 NE9 30.11R WATERFRONT PRK N/A 73 N/A N/A NE9 N/A FORT JOHNSON NOT AVBL MOUNT PLEASANT MOCLDY 72 70 94 NE9 30.12R JOHNS ISLAND PTCLDY 73 73 100 NE8 30.10R PINOPOLIS N/A 75 70 83 NE16 30.04R MONCKS CORNER LGT RAIN 72 70 94 E7 30.13R SUMMERVILLE FAIR 70 70 100 NE3 30.13R BEAUFORT MCAS CLOUDY 74 68 81 W9 30.09R BEAUFORT ARPT LGT RAIN 73 72 94 NE13 30.08R HILTON HEAD IS RAIN 72 70 94 NE6 30.08S GEORGETOWN NOT AVBL WALTERBORO MOCLDY 70 N/A N/A NE5 30.11S ORANGEBURG PTCLDY 71 67 87 NE8 30.12R BARNWELL FAIR 68 66 94 NE7 30.13R AIKEN FAIR 68 68 100 NE5 30.17R MANNING FAIR 72 N/A N/A NE5 30.14R KINGSTREE NOT AVBL COLUMBIA PTCLDY 72 65 78 E3 30.14S SUMTER CLEAR 69 64 84 NE9 30.13S FLORENCE PTCLDY 70 65 84 NE7 30.16R MYRTLE BEACH MOCLDY 73 64 73 NE14 30.13R N MYRTLE BEACH CLOUDY 73 65 75 NE12 30.13S $$ GAZ063-065-086>088-099>101-113>116-118-119-134-136>141-150-200300- ...GEORGIA... CITY SKY/WX TMP DP RH WIND PRES REMARKS SAVANNAH ARPT CLOUDY 74 69 85 NE8 30.07R HUNTER AAF LGT RAIN 72 70 94 E7 30.05S FORT STEWART CLOUDY 73 68 87 E10 30.07R STATESBORO NOT AVBL SYLVANIA PTCLDY 73 70 92 E7 30.11R CLAXTON FAIR 72 72 100 NE5 30.09R THOMSON CLEAR 70 70 99 E3 30.17S AUGUSTA-BUSH PTCLDY 68 66 93 CALM 30.11S AUGUSTA-DANIEL PTCLDY 71 66 84 NE7 30.13S SWAINSBORO FAIR 72 72 100 NE3 30.10R VIDALIA CLOUDY 70 70 100 NE6 30.09R ALMA MOCLDY 72 69 90 NE3 30.05R WAYCROSS MOCLDY 75 73 94 E5 30.03F JESUP MOCLDY 73 72 94 NE3 30.06R BRUNSWICK CLOUDY 72 70 94 NW3 30.05R SAINT SIMONS CLOUDY 79 69 71 E9 30.02R $$ SCZ027-028-034-036>038-045-046-048>050-GAZ119-141-200300- ...LAKE AND SUPPLEMENTAL COASTAL OBSERVATIONS... STATION/POSITION TIME TEMP WIND PRES WAVE SWELL AIR SEA DIR/SP/G HT/PER HT/PER/DIR (UTC) (F) (DEG/KT/KT) (MB) (FT/S) (FT/S/D) UPR LAKE MARION NOT AVBL WINYAH BAY 0200 77 70/ 17 1019.0S LAKE MURRAY 0100 73 70/ 3/ 8 1020.0S ACE BASIN NERRS 0200 70 40/ 2 1019.0S FORT PULASKI 0200 74 40/ 16/ 20 1018.2S SAPELO ISLAND 0200 77 60/ 6 1017.0S $$ ANZ835-935-AMZ111-154-330-350-352-354-374-450-454-472-200300- ...C-MAN AND BUOY OBSERVATIONS... STATION/POSITION TIME TEMP WIND PRES WAVE SWELL AIR SEA DIR/SP/G HT/PER HT/PER/DIR (UTC) (F) (DEG/KT/KT) (MB) (FT/S) (FT/S/D) FOLLY BEACH CMAN 0200 78 60/ 16/ 19 1019.3R BUOY 41004 0200 77 82 90/ 25/ 29 1017.1R 6/ 6 2/10 BUOY 41008 0200 80 84 80/ 17/ 21 1016.4R 4/ 6 2/ 60/ 8 5E ST. MARYS GA 0200 84 N/A 3/ 4 FRYING PAN BUOY NOT AVBL BUOY 41025 0200 76 60/ 17/ 21 1021.9R 7/ 7 2/100/11 CAPE LOOKOUT NC 0200 74 40/ 22/ 26 1021.9S BUOY 41002 0121 79 82 70/ 23/ 27 1018.2 7/ 7 2/ 60/12 BUOY 41010 0200 83 85 60/ 10/ 14 1014.5R 4/ 5 3/ 50/ 9 BUOY 41012 NOT AVBL ST AUGUSTINE FL 0200 80 80/ 12/ 14 1016.0R CAPERS NEARSHORE 0100 73 110/ 14/ 17 N/A FRIPP NEARSHORE NOT AVBL $$

USA.gov is the U.S. government's official web portal to all federal, state and local government web resources and services.